MSG 4 DEB (COOLER COVER), 40989

Orbit data source: Space-Track

MSG 4 DEB (COOLER COVER), 40989 is space debris in GEO originally from a launch on Wed, 15 Jul 2015 UTC launched from the French Guiana (FRGUI). Debris objects in space refer to the collection of defunct objects orbiting the Earth. Examples of debris include non-operational satellites, rocket bodies, and fragments generated from explosions, collisions, or faulty payload assembly.

Not visible in the next 10 days
Identifier
40989, 2015-034E
Orbit
GEO
Country
Flag of UnknownUnknown / EUME
Related business
Manufacturer
SENER
Mission
Spacecraft
Bus & Motor
MSG COVER, Unknown motor
Mass
~0 kg wet, ~4 kg dry
Launch date (UTC)
2015-07-15 (10 years ago)
Launch vehicle
Unknown
Launch site
French Guiana (FRGUI)
Object type
Payload
Rocket body
Debris
Shape & HBR
Box, 0.6 m
Radar Cross Section
0.435 m²

Expand to show TLE details & history
Last TLE update: 3 days ago

TLE from 3 days ago
0 MSG 4 DEB (COOLER COVER)
1 40989U 15034E   25304.84697497 -.00000275  00000-0  00000-0 0  9996
2 40989   6.5311  82.6204 0025542 271.2004  88.2175  1.01540959 38011
Epoch: 2025-10-31T20:19Z
TLE epoch observation values (Epoch: 2025-10-31T20:19:38.637Z)
Latitude
-0.0377°
Longitude
96.99897°
Altitude
35,430.382 km
Speed
3.088 km/s
True Right ascension
05h 29m 10s
True Declination
0° 02' 16"
Sunlit
Object was in daylight at epoch
Visualization orbit readout
Latitude
Unknown
Longitude
Unknown
Altitude
Unknown
Speed
Unknown
Apparent Right ascension
Unknown
Apparent Declination
Unknown
Sunlit
N/A
Visualization observer readout
Local Sidereal Time
15:05:03
Azimuth
Unknown
Elevation
Unknown
Doppler factor
Unknown
Orbital elements
Apogee altitude
35,542.37 km
Perigee altitude
35,328.768 km
Semi-major axis
41,813.706 km
Eccentricity
0.00255
Inclination
6.5311°
RAAN
82.6204°
Arg. of periapsis
271.2004°
True anomaly
88.51008°
Mean anomaly
88.2175°
Eccentric anomaly
88.36379°
Mean motion
0.25384 °/min
Orbital period
1,418.2 mins
BSTAR
0
Loading maneuver chart data...
Computing Atmospheric mass density...
Loading historical data...
Loading historical data...
Loading historical data...
Loading historical data...
Loading historical data...
Loading historical data...
Loading historical data...

Documentation

Showing up to 5 results
|